Williston, ND

6:34 PM CDT on June 22, 2017 (GMT -0500)
Sloulin International

Weather History for KISN - August, 2013

Change the Weather History Date:

Sunday, August 18, 2013

  Actual Average Record
Temperature  
Mean Temperature 72 °F 69 °F  
Max Temperature 87 °F 84 °F 100 °F (1981)
Min Temperature 56 °F 54 °F 38 °F (1969)
Degree Days  
Heating Degree Days 0 1  
Month to date heating degree days 21 18  
Since 1 June heating degree days 174 162  
Since 1 July heating degree days 46 42  
Cooling Degree Days 7 5  
Month to date cooling degree days 46 116  
Year to date cooling degree days 207 379  
Since 1 June cooling degree days 199 366  
Growing Degree Days 21 (Base 50)    
Moisture  
Dew Point 58 °F    
Average Humidity 68    
Maximum Humidity 100    
Minimum Humidity 35    
Precipitation  
Precipitation T in 0.04 in 0.80 in (1913)
Month to date precipitation 1.76 0.86  
Year to date precipitation 15.48 10.53  
Snow  
Snow 0.00 in - - ()
Month to date snowfall 0.0  
Since 1 June snowfall 0.0  
Snow Depth 0.00 in    
Sea Level Pressure  
Sea Level Pressure 29.88 in    
Wind  
Wind Speed 6 mph (SW)    
Max Wind Speed 28 mph    
Max Gust Speed 35 mph    
Visibility 9 miles    
Events      
T = Trace of Precipitation, MM = Missing Value Source: NWS Daily Summary

Daily Weather History Graph

Daily Weather History Graph

Search for Another Location

Airport or City:

Trip Planner

Search our weather history database for the weather conditions in past years. The results will help you decide how hot, cold, wet, or windy it might be!

Date:

Astronomy

Aug. 18, 2013 Rise Set
Actual Time 6:53 AM CDT 9:02 PM CDT
Civil Twilight 6:19 AM CDT 9:35 PM CDT
Nautical Twilight 5:37 AM CDT 10:17 PM CDT
Astronomical Twilight 4:49 AM CDT 11:04 PM CDT
Moon 7:14 PM CDT (8/18) 3:58 AM CDT (8/18)
Length of Visible Light 15h 16m
Length of Day
14h 08m
Waxing Gibbous, 92% of the Moon is Illuminated
Aug 18
Waxing Gibbous
Aug 20
Full
Aug 28
Last Quarter
Sep 5
New
Sep 12
First Quarter

Hourly Weather History & Observations

Time (CDT) Temp. Heat Index Dew Point Humidity Pressure Visibility Wind Dir Wind Speed Gust Speed Precip Events Conditions
12:52 AM 64.9 °F - 62.1 °F 90% 29.86 in 10.0 mi Calm Calm - N/A   Clear
1:52 AM 60.1 °F - 59.0 °F 96% 29.86 in 8.0 mi Calm Calm - N/A   Clear
2:52 AM 59.0 °F - 57.9 °F 96% 29.86 in 10.0 mi Calm Calm - N/A   Clear
3:52 AM 57.9 °F - 55.9 °F 93% 29.85 in 7.0 mi Calm Calm - N/A   Clear
4:52 AM 60.1 °F - 59.0 °F 96% 29.87 in 6.0 mi SW 4.6 mph - N/A   Clear
5:52 AM 59.0 °F - 57.0 °F 93% 29.87 in 8.0 mi Calm Calm - N/A   Clear
6:52 AM 57.9 °F - 57.9 °F 100% 29.88 in 6.0 mi Calm Calm - N/A   Clear
7:26 AM 57.2 °F - 57.2 °F 100% 29.91 in 2.0 mi Calm Calm - N/A   Clear
7:34 AM 57.2 °F - 57.2 °F 100% 29.91 in 5.0 mi Calm Calm - N/A   Clear
7:52 AM 60.1 °F - 59.0 °F 96% 29.89 in 6.0 mi Calm Calm - N/A   Clear
8:52 AM 64.9 °F - 63.0 °F 93% 29.89 in 9.0 mi South 3.5 mph - N/A   Clear
9:52 AM 66.0 °F - 63.0 °F 90% 29.89 in 10.0 mi Calm Calm - N/A   Clear
10:52 AM 68.0 °F - 64.0 °F 87% 29.94 in 10.0 mi WSW 9.2 mph 20.7 mph N/A   Mostly Cloudy
11:52 AM 71.1 °F - 55.9 °F 59% 29.95 in 10.0 mi WNW 24.2 mph 34.5 mph 0.00 in   Mostly Cloudy
12:52 PM 75.0 °F - 55.9 °F 51% 29.92 in 10.0 mi WNW 24.2 mph 34.5 mph N/A   Clear
1:52 PM 77.0 °F - 54.0 °F 45% 29.93 in 10.0 mi West 15.0 mph - N/A   Mostly Cloudy
2:52 PM 75.0 °F - 54.0 °F 48% 29.93 in 10.0 mi NW 11.5 mph 25.3 mph 0.00 in   Overcast
3:52 PM 82.0 °F 81.4 °F 55.0 °F 39% 29.89 in 10.0 mi SSW 4.6 mph - N/A   Clear
4:52 PM 82.9 °F 82.1 °F 55.9 °F 39% 29.86 in 10.0 mi SSE 3.5 mph - N/A   Clear
5:52 PM 86.0 °F 84.7 °F 55.9 °F 36% 29.85 in 10.0 mi Variable 3.5 mph - N/A   Clear
6:52 PM 82.9 °F 82.6 °F 57.9 °F 42% 29.85 in 10.0 mi SSW 6.9 mph - N/A   Clear
7:52 PM 80.1 °F 81.1 °F 61.0 °F 52% 29.86 in 10.0 mi SSW 3.5 mph - N/A   Clear
8:52 PM 75.0 °F - 59.0 °F 57% 29.86 in 10.0 mi SSW 3.5 mph - N/A   Clear
9:52 PM 73.0 °F - 57.0 °F 57% 29.88 in 10.0 mi South 3.5 mph - N/A   Clear
10:52 PM 70.0 °F - 55.9 °F 61% 29.88 in 10.0 mi South 5.8 mph - N/A   Clear
11:52 PM 69.1 °F - 55.0 °F 61% 29.88 in 10.0 mi South 4.6 mph - N/A   Clear